Dubrovnik, Croatia

10:58 AM CEST on June 25, 2017 (GMT +0200)
Cilipi

Weather History for LDDU - April, 2017

Change the Weather History Date:

Friday, April 21, 2017

  Actual Average (LYTV) Record (LYTV)
Temperature  
Mean Temperature 48 °F -  
Max Temperature 56 °F 64 °F 75 °F (2007)
Min Temperature 41 °F 45 °F 39 °F (1998)
Degree Days  
Heating Degree Days 16    
Moisture  
Dew Point 22 °F    
Average Humidity 34    
Maximum Humidity 46    
Minimum Humidity 15    
Precipitation  
Precipitation 0.00 in - - ()
Sea Level Pressure  
Sea Level Pressure 30.22 in    
Wind  
Wind Speed 13 mph ()    
Max Wind Speed 25 mph    
Max Gust Speed 41 mph    
Visibility 10.0 miles    
Events      
Averages and records for this station are not official NWS values.
T = Trace of Precipitation, MM = Missing Value Source: Averaged Metar Reports

Daily Weather History Graph

Daily Weather History Graph

Search for Another Location

Airport or City:

Trip Planner

Search our weather history database for the weather conditions in past years. The results will help you decide how hot, cold, wet, or windy it might be!

Date:

Astronomy

Apr. 21, 2017 Rise Set
Actual Time 5:56 AM CEST 7:35 PM CEST
Civil Twilight 5:26 AM CEST 8:05 PM CEST
Nautical Twilight 4:50 AM CEST 8:41 PM CEST
Astronomical Twilight 4:11 AM CEST 9:20 PM CEST
Moon 3:11 AM CEST (4/21) 1:51 PM CEST (4/21)
Length of Visible Light 14h 39m
Length of Day
13h 39m
Waning Crescent, 30% of the Moon is Illuminated
Apr 21
Waning Crescent
Apr 26
New
May 3
First Quarter
May 10
Full
May 19
Last Quarter

Hourly Weather History & Observations

Time (CEST) Temp. Windchill Dew Point Humidity Pressure Visibility Wind Dir Wind Speed Gust Speed Precip Events Conditions
12:00 AM 42.8 °F 38.0 °F 21.2 °F 42% 30.18 in - Variable 8.1 mph 23.0 mph N/A   Clear
12:30 AM 42.8 °F 36.6 °F 23.0 °F 46% 30.18 in - Variable 11.5 mph 24.2 mph N/A   Clear
1:00 AM 42.8 °F 34.8 °F 21.2 °F 42% 30.18 in - North 17.3 mph 33.4 mph N/A   Clear
1:30 AM 42.8 °F 35.8 °F 23.0 °F 46% 30.18 in - Variable 13.8 mph 35.7 mph N/A   Clear
2:00 AM 43 °F - 22 °F 31% 30.22 in 19 mi NNE 8.9 mph - -  
2:00 AM 42.8 °F 37.5 °F 23.0 °F 46% 30.18 in - Variable 9.2 mph 23.0 mph N/A   Clear
2:30 AM 42.8 °F 37.0 °F 23.0 °F 46% 30.18 in - Variable 10.4 mph 23.0 mph N/A   Clear
3:00 AM 42.8 °F 37.0 °F 23.0 °F 46% 30.18 in - Variable 10.4 mph 21.9 mph N/A   Clear
3:30 AM 42.8 °F 38.0 °F 23.0 °F 46% 30.21 in - Variable 8.1 mph - N/A   Clear
4:00 AM 42.8 °F 37.0 °F 23.0 °F 46% 30.18 in - Variable 10.4 mph - N/A   Clear
4:30 AM 42.8 °F 38.0 °F 23.0 °F 46% 30.18 in - Variable 8.1 mph - N/A   Clear
5:00 AM 43 °F - 23 °F 32% 30.22 in 19 mi NNW 17.9 mph - -   Scattered Clouds
5:00 AM 42.8 °F 34.5 °F 23.0 °F 46% 30.18 in - North 18.4 mph 41.4 mph N/A   Clear
5:30 AM 42.8 °F 36.2 °F 23.0 °F 46% 30.18 in - Variable 12.7 mph 31.1 mph N/A   Clear
6:00 AM 42.8 °F 34.8 °F 23.0 °F 46% 30.18 in - NNE 17.3 mph 36.8 mph N/A   Clear
6:30 AM 42.8 °F 34.3 °F 23.0 °F 46% 30.18 in - NE 19.6 mph 38.0 mph N/A   Clear
7:00 AM 42.8 °F 35.1 °F 23.0 °F 46% 30.21 in - NE 16.1 mph 38.0 mph N/A   Clear
7:30 AM 44.6 °F 37.2 °F 23.0 °F 43% 30.21 in - NE 17.3 mph 34.5 mph N/A   Clear
8:00 AM 44 °F - 22 °F 29% 30.25 in 19 mi ENE 15.7 mph - -   Clear
8:00 AM 44.6 °F 38.4 °F 23.0 °F 43% 30.21 in - Variable 12.7 mph 28.8 mph N/A   Clear
8:30 AM 46.4 °F 42.4 °F 23.0 °F 40% 30.21 in - Variable 8.1 mph - N/A   Clear
9:00 AM 46.4 °F 41.5 °F 23.0 °F 40% 30.24 in - Variable 10.4 mph 23.0 mph N/A   Clear
9:30 AM 46.4 °F 39.8 °F 21.2 °F 37% 30.21 in - North 16.1 mph 28.8 mph N/A   Clear
10:00 AM 50.0 °F - 23.0 °F 35% 30.24 in - Variable 12.7 mph 25.3 mph N/A   Clear
10:30 AM 50.0 °F - 23.0 °F 35% 30.24 in - North 17.3 mph 33.4 mph N/A   Clear
11:00 AM 50 °F - 22 °F 20% 30.25 in 19 mi North 20.1 mph - -   Scattered Clouds
11:00 AM 50.0 °F - 21.2 °F 32% 30.24 in 6.2 mi North 18.4 mph 29.9 mph N/A   Partly Cloudy
11:30 AM 51.8 °F - 21.2 °F 30% 30.24 in 6.2 mi North 20.7 mph 32.2 mph N/A   Partly Cloudy
12:00 PM 51.8 °F - 21.2 °F 30% 30.24 in 6.2 mi NE 17.3 mph 29.9 mph N/A   Partly Cloudy
12:30 PM 53.6 °F - 21.2 °F 28% 30.24 in 6.2 mi NNE 16.1 mph - N/A   Partly Cloudy
1:00 PM 53.6 °F - 23.0 °F 30% 30.24 in 6.2 mi North 16.1 mph 27.6 mph N/A   Partly Cloudy
1:30 PM 55.4 °F - 21.2 °F 26% 30.21 in 6.2 mi North 15.0 mph - N/A   Partly Cloudy
2:00 PM 56 °F - 22 °F 15% 30.23 in 19 mi NNW 17.9 mph - -   Scattered Clouds
2:00 PM 55.4 °F - 23.0 °F 29% 30.21 in 6.2 mi North 16.1 mph 27.6 mph N/A   Partly Cloudy
2:30 PM 55.4 °F - 21.2 °F 26% 30.21 in 6.2 mi Variable 10.4 mph 23.0 mph N/A   Partly Cloudy
3:00 PM 55.4 °F - 21.2 °F 26% 30.21 in 6.2 mi North 13.8 mph 25.3 mph N/A   Partly Cloudy
3:30 PM 55.4 °F - 21.2 °F 26% 30.21 in 6.2 mi North 11.5 mph - N/A   Partly Cloudy
4:00 PM 53.6 °F - 21.2 °F 28% 30.21 in 6.2 mi NNE 13.8 mph - N/A   Partly Cloudy
4:30 PM 53.6 °F - 21.2 °F 28% 30.21 in 6.2 mi North 11.5 mph - N/A   Partly Cloudy
5:00 PM 53 °F - 22 °F 17% 30.22 in 19 mi North 11.2 mph - -   Scattered Clouds
5:00 PM 53.6 °F - 21.2 °F 28% 30.21 in 6.2 mi Variable 8.1 mph 24.2 mph N/A   Partly Cloudy
5:30 PM 53.6 °F - 21.2 °F 28% 30.21 in 6.2 mi Variable 9.2 mph 21.9 mph N/A   Partly Cloudy
6:00 PM 53.6 °F - 19.4 °F 26% 30.21 in - North 13.8 mph - N/A   Clear
6:30 PM 51.8 °F - 21.2 °F 30% 30.21 in - North 15.0 mph - N/A   Clear
7:00 PM 51.8 °F - 21.2 °F 30% 30.21 in - North 16.1 mph - N/A   Clear
7:30 PM 50.0 °F - 19.4 °F 30% 30.21 in - North 17.3 mph - N/A   Clear
8:00 PM 49 °F - 18 °F 17% 30.25 in 31 mi NNE 15.7 mph - -  
8:00 PM 48.2 °F - 19.4 °F 32% 30.24 in - NNE 15.0 mph - N/A   Clear
8:30 PM 48.2 °F - 19.4 °F 32% 30.24 in - NNE 18.4 mph 29.9 mph N/A   Clear
9:00 PM 46.4 °F 39.0 °F 19.4 °F 34% 30.24 in - NNE 19.6 mph - N/A   Clear
9:30 PM 46.4 °F 39.0 °F 19.4 °F 34% 30.24 in - NNE 19.6 mph - N/A   Clear
10:00 PM 44.6 °F 35.7 °F 19.4 °F 37% 30.24 in - NNE 24.2 mph - N/A   Clear
10:30 PM 44.6 °F 35.5 °F 19.4 °F 37% 30.24 in - NNE 25.3 mph - N/A   Clear
11:00 PM 44 °F - 19 °F 24% 30.28 in 31 mi NNE 22.4 mph - -  
11:00 PM 44.6 °F 35.7 °F 19.4 °F 37% 30.24 in - NNE 24.2 mph - N/A   Clear
11:30 PM 44.6 °F 35.5 °F 19.4 °F 37% 30.24 in - NNE 25.3 mph - N/A   Clear